Content
SEND FEEDBACK

Daily
Averages
Monthly
Summary
United States of America

HAZELWOOD, MISSOURI


Home > North America > United States > Missouri
Elevation: 174 meters     Latitude: 38 45N     Longitude: 090 22W

WEATHER
 
SELECT A DAY
Number of Records: 201,410;   Date Range: 1/1/95 - 12/24/14
 
SHARE

PRINT THIS DATA

[ ← Previous Day ]
WEATHER ALMANAC - 7 JANUARY, 2013
[ Next Day → ]
[ °F ]   °C
Weather ElementAverageHighLow
Temperature0.6 °C8.9 °C (2:54 pm)-8.3 °C (3:54 am)
Dewpoint-6.8 °C-4 °C (12:54 pm)-10.6 °C (3:54 am)
Humidity61.3 %85 % (1:54 am)37 % (2:54 pm)
Barometer1026.1 hPa1030.5 hPa (2:54 am)1021.7 hPa (11:54 pm)
Wind Speed5.8 km/h16.7 km/h (9:54 am)
Weather ElementAverage
Visibility15.9 km
Wind DirectionESE (95.7 °)

Weather ElementTotal
Precipitation---
Heating Degree Days18.1 (Base 18.3)
Averaged from 23 records on 7 January, 2013
WEATHER CONDITIONS BREAKOUT
WIND DIRECTION BREAKOUT
WEATHER BY HOUR - 7 JANUARY, 2013
[ °F ]   °C
Local TimeTemperatureDewpointHumidityBarometerVisibilityWind DirectionWind SpeedGust SpeedPrecipitationEventsConditions
1:54 AM-7.2 °C-9.4 °C85 %1029.8 hPa16.1 kmCalmClear
2:54 AM-7.2 °C-9.4 °C85 %1030.5 hPa16.1 kmCalmClear
3:54 AM-8.3 °C-10.6 °C84 %1030.1 hPa14.5 kmCalmClear
4:54 AM-7.8 °C-10 °C84 %1029.8 hPa14.5 kmCalmClear
5:54 AM-7.8 °C-10 °C84 %1029.5 hPa16.1 kmCalmClear
6:54 AM-8.3 °C-10.6 °C84 %1029.8 hPa14.5 kmSW (220°)5.6 km/hClear
7:54 AM-7.8 °C-10 °C84 %1030.1 hPa16.1 kmCalmClear
8:54 AM-2.2 °C-6.1 °C75 %1029.8 hPa16.1 kmCalmClear
9:54 AM1.1 °C-5 °C64 %1029.5 hPa16.1 kmSouth (190°)16.7 km/hClear
10:54 AM3.3 °C-5 °C55 %1029.1 hPa16.1 kmSouth (190°)7.4 km/hPartly Cloudy
11:54 AM5 °C-5 °C49 %1027.1 hPa16.1 kmSouth (190°)14.8 km/hPartly Cloudy
12:54 PM7 °C-4 °C46 %1024.4 hPa16.1 kmSSE (150°)14.8 km/hPartly Cloudy
1:54 PM8.3 °C-4.4 °C41 %1024.4 hPa16.1 kmSSE (160°)13 km/hClear
2:54 PM8.9 °C-5 °C37 %1024 hPa16.1 kmSE (130°)11.1 km/hScattered Clouds
3:54 PM7.8 °C-5.6 °C39 %1023.7 hPa16.1 kmSSE (160°)7.4 km/hScattered Clouds
4:54 PM7 °C-6 °C39 %1022 hPa16.1 kmSE (140°)7.4 km/hScattered Clouds
5:54 PM5.6 °C-6.1 °C43 %1023.4 hPa16.1 kmSE (140°)5.6 km/hScattered Clouds
6:54 PM5 °C-6.1 °C45 %1023 hPa16.1 kmSouth (170°)11.1 km/hClear
7:54 PM3.9 °C-6.1 °C49 %1022.4 hPa16.1 kmSouth (170°)11.1 km/hMostly Cloudy
8:54 PM2.8 °C-5.6 °C54 %1022.4 hPa16.1 kmSouth (190°)7.4 km/hPartly Cloudy
9:54 PM1.7 °C-5.6 °C59 %1022.4 hPa16.1 kmCalmPartly Cloudy
10:54 PM1.1 °C-5.6 °C61 %1022 hPa16.1 kmCalmClear
11:54 PM0.6 °C-5.6 °C64 %1021.7 hPa16.1 kmCalmClear
Hourly data recorded from KSUS, located 0 kilometers away from Hazelwood, Missouri







STORIES FROM OUR PARTNERS